Location: Chassiers
(44.5520°N, 4.2963°E)
Time: 16:37:45
(UTC+00:00)

Daily predictions for brighter satellites

Satellite Brightness Start Highest point End
(mag) Time Altitude Azimuth Time Altitude Azimuth Time Altitude Azimuth
Starlink C 4.1 17:02:34 10° W 17:05:21 31° NNW 17:08:10 10° NE
Starlink E 4.2 17:04:14 10° W 17:07:02 31° NNW 17:09:49 10° NE
Cosmos-2242 4.3 17:04:12 10° NNE 17:07:21 19° ENE 17:10:27 10° ESE
COBE Rocket 4.5 17:02:24 10° N 17:07:31 68° WNW 17:12:39 10° SSW
USA 234 3.4 17:02:02 10° SE 17:08:36 88° SW 17:15:10 10° NW
Starlink J 4.2 17:05:55 10° W 17:08:42 30° NNW 17:11:29 10° NE
YAOGAN 1 3.9 17:05:59 10° ESE 17:09:02 19° ENE 17:12:06 10° NNE
Cosmos 2184 Rocket 4.1 17:03:40 10° S 17:09:51 86° W 17:16:03 10° N
Starlink V 4.2 17:07:34 10° W 17:10:20 29° NNW 17:13:07 10° NE
Starlink H 4.3 17:09:17 10° W 17:12:02 29° NNW 17:14:47 10° NE
Starlink F 4.3 17:10:58 10° W 17:13:42 28° NNW 17:16:27 10° NE
Starlink G 4.3 17:12:39 10° W 17:15:23 28° NNW 17:18:07 10° NE
Starlink L 4.3 17:14:21 10° W 17:17:04 27° NNW 17:19:47 10° NE
Cosmos 2154 Rocket 4.0 17:12:01 10° S 17:18:16 71° E 17:24:29 10° NNE
Starlink A 4.4 17:16:03 10° W 17:18:45 27° NNW 17:21:28 10° NE
Cosmos 1242 Rocket 2.8 17:16:03 10° SSW 17:19:32 70° W 17:23:06 10° N
Starlink R 4.4 17:17:45 10° W 17:20:28 27° NNW 17:23:09 10° NE
Starlink K 4.4 17:19:27 10° W 17:22:07 26° NNW 17:24:48 10° NE
USA 32 4.4 17:18:20 10° SSE 17:23:14 42° E 17:28:09 10° NNE
ATLAS CENTAUR R/B 3.4 17:22:19 10° N 17:23:40 11° NNE 17:24:59 10° NE
Starlink M 4.4 17:21:05 10° WNW 17:23:45 26° NNW 17:26:26 10° NE
ISS -2.3 17:23:08 10° SSW 17:25:56 25° SE 17:28:19 12° E
Cosmos 1602 Rocket 3.5 17:21:57 10° S 17:26:20 87° E 17:30:43 10° N
CZ-4 R/B 2.0 17:26:27 10° SE 17:30:09 35° ENE 17:33:56 10° N
SMAP 3.9 17:26:04 10° S 17:30:37 57° W 17:35:13 10° NNW
DELTA 2 R/B (1) 4.3 17:25:55 10° WSW 17:31:14 46° S 17:36:26 11° E
ATLAS CENTAUR R/B 4.3 17:28:39 10° W 17:34:02 52° NNW 17:48:22 11° NE
Cosmos 1300 3.2 17:31:04 10° NNW 17:34:51 63° W 17:38:37 10° S
Cosmos 2237 Rocket 2.1 17:29:44 10° NNW 17:35:22 68° ENE 17:40:57 10° SE
YAOGAN 6 2.5 17:32:27 10° SSE 17:36:05 66° ENE 17:39:44 10° N
Cosmos 1125 Rocket 3.8 17:31:07 10° SSW 17:36:16 68° WNW 17:41:29 10° NNE
CZ-2D R/B 4.3 17:35:29 10° ESE 17:38:36 24° ENE 17:41:46 10° NNE
Cosmos 1953 Rocket 4.4 17:34:49 10° SSE 17:38:45 31° E 17:42:43 10° NNE
COSMO-SKYMED 1 2.7 17:34:41 10° NNE 17:38:58 54° E 17:43:13 10° S
Cosmos 1626 3.0 17:35:36 10° SSW 17:39:12 51° WNW 17:42:50 10° N
Cosmos 2333 Rocket 3.7 17:35:35 10° NW 17:40:55 41° WSW 17:46:10 10° S
NOAA 12 4.4 17:36:05 10° S 17:41:17 74° WSW 17:46:33 10° NNW
Cosmos 1758 Rocket 3.5 17:39:21 10° S 17:43:34 57° E 17:47:48 10° NNE
Cosmos 2366 rocket 4.5 17:38:19 10° SSE 17:43:55 37° E 17:49:36 10° NNE
CZ-4 R/B 4.4 17:40:33 10° SSE 17:44:36 58° ENE 17:48:39 10° N
CSL-04 Rocket 4.0 17:39:48 10° SE 17:44:59 45° ENE 17:50:15 10° N
ADEOS Rocket 4.2 17:39:52 10° NE 17:45:26 27° E 17:51:23 10° SSE
Envisat 3.3 17:40:53 10° S 17:45:56 72° WSW 17:51:02 10° NNW
NOSS 0 Rocket 4.3 17:41:19 10° NNW 17:47:31 71° WSW 17:53:38 10° SSE
ATLAS 5 CENTAUR R/B 4.0 17:46:36 10° WNW 17:49:20 15° NNW 17:52:16 10° NNE
Cosmos 1455 2.7 17:46:21 10° N 17:49:54 36° ENE 17:53:25 10° SE
Cosmos 962 Rocket 4.4 17:44:22 10° S 17:50:28 80° E 17:56:40 10° N
ERBS 2.3 17:50:20 10° SW 17:53:40 76° NW 17:55:37 23° NE
Okean-O 3.2 17:52:53 10° S 17:57:15 60° WSW 18:01:39 10° NNW
SL-16 R/B 2.6 17:52:13 10° NNW 17:57:35 41° ENE 18:02:53 10° SE
Cosmos 1269 Rocket 4.2 17:54:12 10° NNW 17:59:29 75° WSW 18:04:44 10° SSE
CZ-4C R/B 3.7 17:53:06 10° NW 18:00:18 58° WSW 18:08:22 10° SSE
Cosmos 724 4.4 17:54:41 10° SW 18:00:41 83° NW 18:06:12 12° NNE
Meteor 1-21 Rocket 4.2 17:57:03 10° S 18:02:38 85° E 18:08:22 10° NNE
Cosmos 2219 3.4 17:57:16 10° SSW 18:02:51 75° WNW 18:08:31 10° NNE
Cosmos 1328 4.1 17:59:51 10° SSE 18:03:38 42° E 18:06:15 18° NNE
Cosmos 1340 Rocket 4.3 18:00:01 10° NNW 18:03:44 39° W 18:07:26 10° SSW
Cosmos 2082 4.0 17:59:56 10° S 18:05:14 46° ESE 18:08:58 19° NE
Cosmos 1825 Rocket 3.5 18:03:57 10° S 18:08:18 87° W 18:12:40 10° N
Cosmos 1727 Rocket 4.2 18:04:45 10° N 18:10:41 45° ENE 18:16:33 10° SSE
Cosmos 2297 Rocket 2.2 18:09:15 10° SSW 18:14:54 85° WNW 18:20:18 12° NNE
USA 267 4.2 18:12:10 16° NE 18:16:50 37° NNW 18:22:44 10° W
Cosmos 1980 4.5 18:12:19 10° NNW 18:17:51 54° WSW 18:23:21 10° S
SL-8 Rocket 4.0 18:13:27 10° S 18:19:46 88° E 18:26:05 10° N
Cosmos 2341 Rocket 4.5 18:18:42 10° SSW 18:25:01 64° W 18:31:21 10° N
Shenzhou-11 Module 3.1 18:24:30 10° SW 18:26:25 31° SSW 18:26:25 31° SSW
Cosmos 2227 Rocket 2.3 18:21:46 10° SSW 18:27:25 75° WNW 18:32:19 14° NNE
NOAA 11 4.2 18:23:00 10° SSE 18:28:30 84° WSW 18:34:02 10° NNW
USA 116 3.2 18:27:57 41° N 18:28:55 73° WNW 18:32:00 10° SSW
Ariane Rocket 3.1 18:24:28 10° SE 18:29:19 48° ENE 18:34:13 10° N
Cosmos 1939 Rocket 2.8 18:29:34 10° S 18:33:27 78° WSW 18:37:26 10° NNW
SL-8 R/B 3.6 18:32:40 10° WSW 18:37:30 81° SSE 18:38:29 56° E
Cosmos 1703 3.5 18:39:40 10° SSW 18:43:36 67° W 18:45:38 27° N
Meteor 2-10 Rocket 4.0 18:38:41 10° NNW 18:43:57 62° W 18:48:59 10° S
YAOGAN 1 3.7 18:40:40 10° S 18:44:48 45° W 18:48:58 10° NNW
Cosmos-2242 4.4 18:41:03 10° NNW 18:45:05 39° W 18:49:03 10° SSW
H-2A R/B 3.6 18:52:43 21° N 18:52:43 21° N 18:54:36 10° N
Cosmos 44 3.3 18:46:45 10° SW 18:51:19 67° NW 18:52:11 53° N
Cosmos 1821 Rocket 4.1 18:46:29 10° SSE 18:52:36 51° E 18:52:56 50° E
Cosmos 2218 Rocket 4.5 18:48:46 10° SSW 18:55:02 62° WNW 19:01:23 10° N
SL-08 R/B 4.4 18:48:56 10° S 18:55:13 90° W 19:01:40 10° N
Cosmos 2251 Rocket 3.5 18:53:12 10° NNW 18:58:31 80° WSW 19:02:01 22° SSE
ISS -1.9 18:59:13 10° WSW 19:01:16 32° W 19:01:16 32° W
ATLAS CENTAUR R/B 3.0 18:59:32 10° NNW 19:01:19 24° NNW 19:01:19 24° NNW
CZ-4 R/B 4.1 19:02:16 10° SW 19:05:17 20° W 19:08:22 10° NW
Atlas Centaur 2 4.0 19:11:16 10° SSW 19:14:16 18° S 19:14:16 18° S
DELTA 2 R/B (1) 4.1 19:11:53 10° W 19:17:12 50° S 19:17:12 50° S
Cosmos 1000 Rocket 4.4 19:22:38 10° N 19:28:48 85° WNW 19:28:48 85° WNW
ADEOS Rocket 3.7 19:24:44 10° N 19:31:11 62° WNW 19:38:19 10° SSW
SL-16 R/B 3.7 19:36:34 10° NW 19:41:34 33° WSW 19:45:51 13° SSW
FALCON 9 R/B 4.3 19:59:00 10° SW 20:05:56 24° SSW 20:05:56 24° SSW
